This is the latest recevied weather packets stored in our database for station/object EA1EXV-11. If no packets are shown the sender has not sent any weather packets the latest 10 day(s).
| Time | Temp. | Humidity | Pressure | Rain* | Wind** | Luminosity | Snow |
|---|---|---|---|---|---|---|---|
| 1777665007 | 16.67° C | 60% | 1019.5 hPa | - | - | - | - |
| 1777664107 | 17.22° C | 59% | 1019.5 hPa | - | - | - | - |
| 1777663207 | 17.78° C | 58% | 1019.5 hPa | - | - | - | - |
| 1777662307 | 18.33° C | 56% | 1019.3 hPa | - | - | - | - |
| 1777661406 | 18.33° C | 56% | 1019.3 hPa | - | - | - | - |
| 1777660508 | 18.33° C | 55% | 1019.4 hPa | - | - | - | - |
| 1777659606 | 18.33° C | 53% | 1019.2 hPa | - | - | - | - |
| 1777658706 | 20° C | 51% | 1019.3 hPa | - | - | - | - |
| 1777657806 | 20° C | 50% | 1019.2 hPa | - | - | - | - |
| 1777656906 | 20.56° C | 49% | 1019.2 hPa | - | - | - | - |
| 1777656009 | 21.11° C | 48% | 1019.1 hPa | - | - | - | - |
| 1777655106 | 22.78° C | 46% | 1018.9 hPa | - | - | - | - |
| 1777654208 | 22.78° C | 47% | 1019.1 hPa | - | - | - | - |
| 1777653306 | 22.22° C | 47% | 1019 hPa | - | - | - | - |
| 1777652405 | 21.67° C | 46% | 1019.1 hPa | - | - | - | - |
| 1777651505 | 23.33° C | 45% | 1019.3 hPa | - | - | - | - |
| 1777650605 | 23.33° C | 45% | 1019.3 hPa | - | - | - | - |
| 1777649705 | 22.78° C | 45% | 1019.4 hPa | - | - | - | - |
| 1777648805 | 23.33° C | 45% | 1019.3 hPa | - | - | - | - |
| 1777647905 | 23.89° C | 44% | 1019.7 hPa | - | - | - | - |
| 1777647005 | 23.33° C | 45% | 1019.6 hPa | - | - | - | - |
| 1777646105 | 23.33° C | 44% | 1019.6 hPa | - | - | - | - |
| 1777645205 | 23.89° C | 43% | 1019.7 hPa | - | - | - | - |
| 1777644304 | 23.89° C | 44% | 1020 hPa | - | - | - | - |
| 1777643404 | 23.89° C | 43% | 1020.1 hPa | - | - | - | - |
* Rain since midnight (hover to see other rain measurements)
** Current wind speed in m/s (hover to see current wind gust speed)